Weather History for TJSJ - November, 2012

Change the Weather History Date:

Monday, November 5, 2012

  Actual Average Record
Temperature  
Mean Temperature 83 °F 81 °F  
Max Temperature 89 °F 87 °F 92 °F (1979)
Min Temperature 77 °F 76 °F 70 °F (1955)
Degree Days  
Heating Degree Days 0 0  
Month to date heating degree days 0 0  
Since 1 July heating degree days 0 0  
Cooling Degree Days 18 16  
Month to date cooling degree days 92 83  
Year to date cooling degree days 5265 5042  
Growing Degree Days 33 (Base 50)    
Moisture  
Dew Point 74 °F    
Average Humidity 73    
Maximum Humidity 85    
Minimum Humidity 61    
Precipitation  
Precipitation 0.04 in 0.23 in 2.74 in (1914)
Month to date precipitation 0.06 1.13  
Year to date precipitation 46.87 46.11  
Sea Level Pressure  
Sea Level Pressure 29.91 in    
Wind  
Wind Speed 4 mph (East)    
Max Wind Speed 14 mph    
Max Gust Speed 18 mph    
Visibility 10 miles    
Events Rain    
T = Trace of Precipitation, MM = Missing Value Source: NWS Daily Summary

Daily Weather History Graph

Daily Weather History Graph

Search for Another Location

Airport or City:

Trip Planner

Search our weather history database for the weather conditions in past years. The results will help you decide how hot, cold, wet, or windy it might be!

Date:

Astronomy

Nov. 05, 2012 Rise Set
Actual Time 6:25 AM AST 5:49 PM AST
Civil Twilight 6:03 AM AST 6:11 PM AST
Nautical Twilight 5:36 AM AST 6:38 PM AST
Astronomical Twilight 5:11 AM AST 7:03 PM AST
Moon 11:21 PM AST (11/5) 11:40 AM AST (11/5)
Length of Visible Light 12h 08m
Length of Day
11h 23m
Waning Gibbous, 63% of the Moon is Illuminated
Nov 5
Waning Gibbous
Nov 6
Last Quarter
Nov 13
New
Nov 20
First Quarter
Nov 28
Full

Hourly Weather History & Observations

Time (AST) Temp. Heat Index Dew Point Humidity Pressure Visibility Wind Dir Wind Speed Gust Speed Precip Events Conditions
12:56 AM 79.0 °F - 73.9 °F 84% 29.92 in 10.0 mi ESE 4.6 mph - 0.00 in   Scattered Clouds
1:56 AM 79.0 °F - 73.9 °F 84% 29.91 in 10.0 mi Calm Calm - N/A   Scattered Clouds
2:56 AM 79.0 °F - 73.9 °F 84% 29.88 in 10.0 mi SE 4.6 mph - 0.01 in Rain Light Rain
3:56 AM 79.0 °F - 75.0 °F 88% 29.88 in 10.0 mi Calm Calm - 0.01 in Rain Light Rain
4:56 AM 78.1 °F - 73.9 °F 87% 29.89 in 10.0 mi ESE 9.2 mph - 0.01 in   Mostly Cloudy
5:56 AM 78.1 °F - 73.9 °F 87% 29.90 in 10.0 mi Calm Calm - N/A   Scattered Clouds
6:56 AM 78.1 °F - 73.9 °F 87% 29.92 in 10.0 mi Calm Calm - N/A   Scattered Clouds
7:56 AM 82.0 °F 87.9 °F 73.9 °F 76% 29.94 in 10.0 mi Calm Calm - N/A   Scattered Clouds
8:56 AM 84.0 °F 91.9 °F 75.0 °F 74% 29.96 in 10.0 mi ESE 3.5 mph - N/A   Scattered Clouds
9:56 AM 86.0 °F 95.1 °F 75.0 °F 70% 29.96 in 10.0 mi East 5.8 mph - N/A   Scattered Clouds
10:56 AM 84.0 °F 91.2 °F 73.9 °F 72% 29.94 in 10.0 mi ENE 9.2 mph - N/A   Scattered Clouds
11:56 AM 84.9 °F 92.1 °F 73.9 °F 69% 29.93 in 10.0 mi East 10.4 mph - N/A   Scattered Clouds
12:56 PM 86.0 °F 95.1 °F 75.0 °F 70% 29.90 in 10.0 mi East 11.5 mph 16.1 mph N/A   Scattered Clouds
1:56 PM 86.0 °F 92.2 °F 72.0 °F 63% 29.89 in 10.0 mi SSE 3.5 mph - N/A   Scattered Clouds
2:56 PM 87.1 °F 96.3 °F 75.0 °F 67% 29.87 in 10.0 mi ENE 9.2 mph - N/A   Scattered Clouds
3:56 PM 82.9 °F 90.8 °F 75.9 °F 79% 29.86 in 10.0 mi ENE 6.9 mph - 0.01 in Rain Light Rain
4:56 PM 84.9 °F 91.4 °F 73.0 °F 67% 29.89 in 10.0 mi ESE 5.8 mph - 0.00 in Rain Light Rain
5:56 PM 82.0 °F 87.4 °F 73.0 °F 74% 29.89 in 10.0 mi East 4.6 mph - 0.00 in   Mostly Cloudy
6:56 PM 81.0 °F 85.8 °F 73.0 °F 77% 29.90 in 10.0 mi Calm Calm - N/A   Scattered Clouds
7:56 PM 80.1 °F 85.1 °F 75.0 °F 85% 29.93 in 10.0 mi Calm Calm - N/A   Partly Cloudy
8:56 PM 81.0 °F 86.2 °F 73.9 °F 79% 29.94 in 10.0 mi Calm Calm - N/A   Partly Cloudy
9:56 PM 80.1 °F 84.5 °F 73.9 °F 81% 29.94 in 10.0 mi Calm Calm - N/A   Partly Cloudy
10:56 PM 81.0 °F 86.2 °F 73.9 °F 79% 29.95 in 10.0 mi Calm Calm - N/A   Scattered Clouds
11:56 PM 80.1 °F 84.2 °F 73.0 °F 79% 29.94 in 10.0 mi Calm Calm - N/A   Mostly Cloudy